period_start,C,m1,H,J0,J1,J2,J3,J4,J5,JA,JB,JC,JD,JJ,JK,JN,#
2016-07-08 00:01:09,0.04,0.64,0.00,23.53,28.35,31.26,14.43,44.11,1014.47,2033.75,3292.49,2948.03,3335.09,600.11,593.77,46.37,0000 0000 0000 0000 000000
2016-07-08 00:06:11,0.04,0.64,0.00,23.19,28.35,31.33,14.49,44.24,1014.29,2033.58,3291.45,2947.07,3333.88,600.17,594.46,46.42,0000 0000 0000 0000 000000
2016-07-08 00:11:12,0.06,0.64,0.00,22.61,28.35,31.54,14.61,44.46,1014.42,2033.49,3290.26,2946.09,3332.76,600.26,595.80,46.47,0000 0000 0000 0000 000000
2016-07-08 00:16:13,0.06,0.65,0.00,22.69,28.32,31.46,14.51,44.42,1014.54,2033.65,3289.52,2945.45,3332.02,599.79,595.17,46.52,0000 0000 0000 0000 000000
2016-07-08 00:21:14,0.03,0.65,0.00,23.23,28.32,31.56,14.49,44.27,1014.42,2033.86,3289.01,2945.00,3331.26,600.04,594.27,46.58,0000 0000 0000 0000 000000
2016-07-08 00:26:16,0.04,0.65,0.00,23.43,28.32,31.44,14.45,44.13,1014.24,2033.87,3288.58,2944.38,3330.72,600.04,593.81,46.63,0000 0000 0000 0000 000000
2016-07-08 00:31:17,0.02,0.65,0.00,23.39,28.32,31.40,14.42,44.14,1014.36,2033.92,3287.98,2943.96,3329.93,600.21,594.08,46.68,0000 0000 0000 0000 000000
2016-07-08 00:36:19,0.05,0.65,0.00,23.48,28.34,31.30,14.45,44.07,1014.48,2033.91,3287.18,2943.14,3329.02,599.98,593.83,46.73,0000 0000 0000 0000 000000
2016-07-08 00:41:20,0.03,0.66,0.00,23.52,28.35,31.27,14.40,44.20,1014.54,2033.92,3286.47,2942.73,3328.17,599.91,593.69,46.78,0000 0000 0000 0000 000000
2016-07-08 00:46:21,0.02,0.66,0.00,23.57,28.35,31.25,14.42,43.97,1014.41,2033.91,3286.01,2942.13,3327.99,600.00,593.59,46.83,0000 0000 0000 0000 000000
2016-07-08 00:51:23,0.01,0.66,0.00,23.53,28.35,31.27,14.44,44.04,1014.22,2033.68,3285.53,2941.66,3327.21,599.94,593.67,46.88,0000 0000 0000 0000 000000
2016-07-08 00:56:24,0.04,0.66,0.00,23.27,28.35,31.34,14.45,44.23,1014.19,2033.61,3284.72,2940.99,3326.34,599.88,594.05,46.93,0000 0000 0000 0000 000000
2016-07-08 01:01:25,0.04,0.66,0.00,23.00,28.35,31.59,14.45,44.29,1014.19,2033.63,3284.00,2940.25,3325.73,599.61,594.16,46.98,0000 0000 0000 0000 000000
2016-07-08 01:06:26,0.01,0.66,0.00,22.86,28.35,31.54,14.48,44.22,1014.19,2033.41,3283.24,2939.86,3324.95,600.08,594.95,47.03,0000 0000 0000 0000 000000
2016-07-08 01:11:27,0.07,0.67,0.00,22.87,28.34,31.47,14.52,44.33,1014.20,2033.56,3282.63,2939.06,3324.10,599.95,594.92,47.08,0000 0000 0000 0000 000000
2016-07-08 01:16:29,0.04,0.67,0.00,23.31,28.34,31.60,14.41,44.21,1014.26,2033.64,3282.05,2938.52,3323.49,599.55,593.58,47.13,0000 0000 0000 0000 000000
2016-07-08 01:21:30,0.04,0.67,0.00,23.46,28.35,31.39,14.44,44.13,1014.22,2033.67,3281.46,2937.82,3322.64,600.28,593.99,47.18,0000 0000 0000 0000 000000
2016-07-08 01:26:31,0.00,0.67,0.00,23.44,28.35,31.34,14.47,44.23,1014.21,2033.35,3280.58,2937.03,3321.79,600.18,593.83,47.23,0000 0000 0000 0000 000000
2016-07-08 01:31:32,0.03,0.67,0.00,23.35,28.35,31.45,14.45,44.16,1014.21,2033.30,3280.02,2936.62,3321.03,600.03,594.04,47.28,0000 0000 0000 0000 000000
2016-07-08 01:36:34,0.03,0.67,0.00,23.47,28.35,31.39,14.49,44.10,1014.21,2033.25,3279.82,2936.02,3320.49,600.15,593.83,47.33,0000 0000 0000 0000 000000
2016-07-08 01:41:35,-0.00,0.68,0.00,23.52,28.37,31.28,14.50,44.00,1014.21,2033.13,3279.13,2935.88,3320.01,599.92,593.48,47.38,0000 0000 0000 0000 000000
2016-07-08 01:46:36,0.03,0.68,0.00,23.46,28.37,31.29,14.50,44.02,1014.35,2033.07,3278.94,2935.14,3319.48,600.01,593.78,47.43,0000 0000 0000 0000 000000
2016-07-08 01:51:37,0.02,0.68,0.00,22.80,28.37,31.46,14.51,44.34,1014.45,2033.08,3278.16,2934.91,3318.94,600.06,595.14,47.48,0000 0000 0000 0000 000000
2016-07-08 01:56:39,0.04,0.68,0.00,22.21,28.35,31.36,14.55,44.39,1014.37,2033.05,3277.61,2934.11,3318.12,600.04,596.34,47.54,0000 0000 0000 0000 000000
2016-07-08 02:01:40,0.03,0.68,0.00,21.98,28.32,31.42,14.59,44.48,1014.20,2033.21,3277.12,2934.01,3318.00,599.89,596.56,47.59,0000 0000 0000 0000 000000
2016-07-08 02:06:41,0.02,0.68,0.00,21.95,28.29,31.42,14.61,44.59,1014.18,2033.41,3277.00,2933.99,3317.97,600.03,596.65,47.64,0000 0000 0000 0000 000000
2016-07-08 02:11:42,0.05,0.69,0.00,22.05,28.26,31.45,14.53,44.56,1014.18,2033.83,3276.98,2933.95,3317.51,599.80,596.39,47.69,0000 0000 0000 0000 000000
2016-07-08 02:16:44,0.01,0.69,0.00,22.77,28.25,31.45,14.55,44.47,1014.18,2033.95,3276.94,2933.76,3317.07,599.89,594.92,47.74,0000 0000 0000 0000 000000
2016-07-08 02:21:45,0.02,0.69,0.00,23.19,28.23,31.42,14.47,44.41,1014.18,2033.97,3276.87,2933.16,3317.00,600.00,594.23,47.79,0000 0000 0000 0000 000000
2016-07-08 02:26:46,0.01,0.69,0.00,23.27,28.22,31.37,14.54,44.28,1014.17,2033.99,3276.20,2933.01,3316.92,600.36,594.41,47.84,0000 0000 0000 0000 000000
2016-07-08 02:31:48,0.01,0.69,0.00,23.36,28.22,31.49,14.48,44.23,1014.17,2033.99,3276.00,2932.99,3316.20,600.09,593.86,47.89,0000 0000 0000 0000 000000
2016-07-08 02:36:49,0.02,0.69,0.00,23.47,28.23,31.31,14.39,44.22,1014.15,2033.97,3275.92,2932.39,3315.99,600.09,593.65,47.94,0000 0000 0000 0000 000000
2016-07-08 02:41:50,0.02,0.69,0.00,23.37,28.25,31.28,14.46,44.26,1014.12,2033.98,3275.19,2932.01,3315.53,599.76,593.59,47.99,0000 0000 0000 0000 000000
2016-07-08 02:46:51,0.00,0.69,0.00,23.07,28.25,31.46,14.43,44.26,1013.97,2033.95,3274.97,2931.95,3315.02,599.61,594.04,48.04,0000 0000 0000 0000 000000
2016-07-08 02:51:53,0.05,0.69,0.00,22.78,28.25,31.43,14.51,44.34,1013.92,2033.97,3274.32,2931.29,3314.75,599.95,594.87,48.09,0000 0000 0000 0000 000000
2016-07-08 02:56:54,0.01,0.70,0.00,22.76,28.23,31.33,14.58,44.45,1013.92,2033.96,3273.99,2931.01,3314.05,600.15,595.06,48.14,0000 0000 0000 0000 000000
2016-07-08 03:01:55,0.02,0.70,0.00,23.26,28.25,31.49,14.48,44.31,1013.79,2033.97,3273.66,2930.75,3313.86,599.77,593.65,48.19,0000 0000 0000 0000 000000
2016-07-08 03:06:56,0.03,0.70,0.00,23.39,28.25,31.28,14.46,44.25,1013.69,2033.98,3273.04,2930.05,3313.08,600.16,593.69,48.24,0000 0000 0000 0000 000000
2016-07-08 03:11:57,0.00,0.70,0.00,23.00,28.26,31.38,14.50,44.38,1013.71,2033.98,3272.93,2929.98,3312.96,600.21,594.53,48.29,0000 0000 0000 0000 000000
2016-07-08 03:16:58,0.04,0.70,0.00,22.38,28.25,31.31,14.59,44.55,1013.71,2033.99,3272.16,2929.48,3312.22,600.08,595.65,48.34,0000 0000 0000 0000 000000
2016-07-08 03:22:00,0.00,0.70,0.00,22.19,28.25,31.25,14.55,44.48,1013.70,2033.99,3272.03,2929.25,3312.03,599.94,595.82,48.39,0000 0000 0000 0000 000000
2016-07-08 03:27:01,0.00,0.70,0.00,22.46,28.23,31.34,14.47,44.43,1013.69,2033.99,3272.00,2929.09,3312.01,599.68,595.04,48.45,0000 0000 0000 0000 000000
2016-07-08 03:32:02,0.00,0.70,0.00,23.03,28.22,31.47,14.49,44.35,1013.69,2033.99,3272.00,2929.02,3312.00,599.91,594.10,48.50,0000 0000 0000 0000 000000
2016-07-08 03:37:03,0.00,0.70,0.00,23.27,28.24,31.47,14.51,44.45,1013.66,2033.99,3272.00,2929.00,3312.00,600.34,594.12,48.55,0000 0000 0000 0000 000000
2016-07-08 03:42:05,0.01,0.70,0.00,23.38,28.25,31.50,14.47,44.39,1013.59,2033.99,3271.91,2928.96,3311.62,599.92,593.42,48.60,0000 0000 0000 0000 000000
2016-07-08 03:47:06,0.04,0.70,0.00,23.39,28.25,31.36,14.46,44.33,1013.44,2033.99,3271.21,2928.37,3311.02,600.11,593.49,48.65,0000 0000 0000 0000 000000
2016-07-08 03:52:07,0.01,0.70,0.00,23.36,28.27,31.34,14.47,44.22,1013.46,2033.98,3270.96,2928.00,3310.78,599.80,593.32,48.70,0000 0000 0000 0000 000000
2016-07-08 03:57:09,0.01,0.71,0.00,23.34,28.27,31.38,14.41,44.25,1013.56,2033.98,3270.84,2928.00,3310.25,600.09,593.69,48.75,0000 0000 0000 0000 000000
2016-07-08 04:02:10,0.00,0.71,0.00,23.50,28.29,31.23,14.43,44.24,1013.63,2033.97,3270.37,2927.99,3310.02,600.14,593.40,48.80,0000 0000 0000 0000 000000
2016-07-08 04:07:12,0.01,0.71,0.00,23.56,28.30,31.21,14.46,44.02,1013.64,2033.97,3270.11,2927.85,3310.00,600.01,593.14,48.85,0000 0000 0000 0000 000000
2016-07-08 04:12:13,0.01,0.71,0.00,23.48,28.32,31.25,14.40,44.10,1013.58,2033.97,3270.05,2927.65,3310.00,600.00,593.39,48.90,0000 0000 0000 0000 000000
2016-07-08 04:17:14,0.01,0.71,0.00,23.37,28.32,31.30,14.37,44.15,1013.44,2033.96,3270.00,2927.10,3309.82,599.85,593.11,48.95,0000 0000 0000 0000 000000
2016-07-08 04:22:15,0.01,0.71,0.00,23.49,28.33,31.29,14.46,44.26,1013.27,2033.93,3269.97,2927.00,3309.28,600.17,593.26,49.00,0000 0000 0000 0000 000000
2016-07-08 04:27:17,0.01,0.71,0.00,23.62,28.35,31.25,14.47,44.02,1013.34,2033.91,3269.66,2927.00,3309.02,600.09,593.00,49.05,0000 0000 0000 0000 000000
2016-07-08 04:32:18,0.00,0.71,0.00,23.65,28.36,31.25,14.37,43.96,1013.28,2033.86,3269.17,2926.94,3309.00,599.72,592.56,49.10,0000 0000 0000 0000 000000
2016-07-08 04:37:20,0.00,0.71,0.00,23.61,28.37,31.28,14.40,44.06,1013.23,2033.72,3269.03,2926.75,3308.98,599.87,592.71,49.15,0000 0000 0000 0000 000000
2016-07-08 04:42:21,-0.00,0.71,0.00,23.59,28.39,31.32,14.52,44.25,1013.22,2033.59,3269.00,2926.32,3308.97,600.44,593.30,49.20,0000 0000 0000 0000 000000
2016-07-08 04:47:22,0.01,0.71,0.00,23.62,28.40,31.30,14.41,44.02,1013.20,2033.58,3268.98,2926.04,3308.62,599.79,592.53,49.25,0000 0000 0000 0000 000000
2016-07-08 04:52:24,-0.00,0.71,0.00,23.59,28.41,31.32,14.42,44.00,1013.20,2033.40,3268.96,2926.01,3308.09,599.89,592.73,49.30,0000 0000 0000 0000 000000
2016-07-08 04:57:25,-0.01,0.71,0.00,23.58,28.42,31.35,14.44,44.14,1013.19,2033.18,3268.52,2926.00,3308.01,600.16,593.03,49.35,0000 0000 0000 0000 000000
2016-07-08 05:02:26,0.01,0.71,0.00,23.62,28.42,31.34,14.43,44.09,1013.13,2033.10,3268.13,2925.98,3308.00,600.15,592.85,49.41,0000 0000 0000 0000 000000
2016-07-08 05:07:27,-0.00,0.71,0.00,23.69,28.45,31.28,14.38,44.09,1012.96,2033.04,3268.03,2925.89,3307.98,600.05,592.62,49.46,0000 0000 0000 0000 000000
2016-07-08 05:12:28,0.02,0.71,0.00,23.24,28.45,31.42,14.43,44.27,1012.81,2033.02,3268.00,2925.38,3307.72,600.08,593.32,49.51,0000 0000 0000 0000 000000
2016-07-08 05:17:30,0.01,0.71,0.00,23.02,28.45,31.64,14.54,44.44,1012.75,2033.03,3267.95,2925.06,3307.17,599.99,593.71,49.56,0000 0000 0000 0000 000000
2016-07-08 05:22:31,0.01,0.71,0.00,23.40,28.47,31.56,14.49,44.28,1012.73,2033.03,3267.20,2925.00,3307.01,600.34,593.23,49.61,0000 0000 0000 0000 000000
2016-07-08 05:27:32,-0.00,0.71,0.00,23.54,28.47,31.36,14.42,44.08,1012.73,2033.01,3267.00,2924.96,3306.92,600.03,592.76,49.66,0000 0000 0000 0000 000000
2016-07-08 05:32:33,0.02,0.71,0.00,23.58,28.49,31.32,14.39,44.17,1012.73,2033.01,3267.00,2924.67,3306.42,599.71,592.27,49.71,0000 0000 0000 0000 000000
2016-07-08 05:37:35,0.02,0.71,0.00,23.60,28.50,31.32,14.42,44.38,1012.72,2033.01,3266.67,2924.07,3306.03,599.76,592.32,49.76,0000 0000 0000 0000 000000
2016-07-08 05:42:36,0.01,0.71,0.00,23.67,28.50,31.32,14.38,44.42,1012.71,2033.01,3266.02,2923.99,3305.89,600.09,592.49,49.81,0000 0000 0000 0000 000000
2016-07-08 05:47:37,0.01,0.71,0.00,23.68,28.51,31.35,14.43,44.22,1012.71,2033.00,3265.97,2923.86,3305.21,600.07,592.43,49.86,0000 0000 0000 0000 000000
2016-07-08 05:52:39,0.02,0.72,0.00,23.76,28.52,31.33,14.37,43.95,1012.71,2033.00,3265.77,2923.27,3305.01,599.68,592.02,49.91,0000 0000 0000 0000 000000
2016-07-08 05:57:40,0.01,0.72,0.00,23.79,28.52,31.31,14.39,44.09,1012.71,2033.00,3265.16,2923.01,3304.91,600.11,592.28,49.96,0000 0000 0000 0000 000000
2016-07-08 06:02:42,0.01,0.72,0.00,23.74,28.54,31.35,14.38,44.13,1012.71,2033.00,3265.00,2922.99,3304.25,599.87,592.18,50.01,0000 0000 0000 0000 000000
2016-07-08 06:07:43,0.01,0.72,0.00,23.22,28.54,31.49,14.44,44.33,1012.71,2033.00,3264.87,2922.87,3304.02,599.78,593.20,50.06,0000 0000 0000 0000 000000
2016-07-08 06:12:44,0.02,0.72,0.00,23.05,28.52,31.65,14.51,44.44,1012.71,2033.00,3264.55,2922.45,3304.00,600.31,594.08,50.11,0000 0000 0000 0000 000000
2016-07-08 06:17:45,0.01,0.72,0.00,23.55,28.53,31.51,14.44,44.07,1012.68,2033.00,3264.36,2922.15,3303.98,599.99,592.63,50.16,0000 0000 0000 0000 000000
2016-07-08 06:22:46,0.01,0.72,0.00,23.72,28.55,31.35,14.47,44.16,1012.52,2033.00,3264.01,2922.00,3303.44,600.10,592.22,50.21,0000 0000 0000 0000 000000
2016-07-08 06:27:48,0.00,0.72,0.00,23.76,28.55,31.31,14.33,44.14,1012.44,2033.00,3264.00,2921.99,3303.03,599.88,591.90,50.26,0000 0000 0000 0000 000000
2016-07-08 06:32:49,0.02,0.72,0.00,23.83,28.56,31.32,14.40,44.09,1012.38,2033.00,3263.81,2921.61,3302.96,600.28,592.15,50.32,0000 0000 0000 0000 000000
2016-07-08 06:37:51,0.03,0.72,0.00,23.84,28.57,31.32,14.41,44.14,1012.25,2032.99,3263.11,2921.04,3302.27,600.37,592.15,50.37,0000 0000 0000 0000 000000
2016-07-08 06:42:52,0.00,0.72,0.00,23.90,28.57,31.31,14.32,44.13,1012.25,2032.99,3263.00,2920.99,3302.00,599.80,591.53,50.42,0000 0000 0000 0000 000000
2016-07-08 06:47:53,0.01,0.72,0.00,23.89,28.59,31.33,14.36,44.19,1012.24,2032.99,3262.98,2920.67,3301.80,600.08,591.71,50.47,0000 0000 0000 0000 000000
2016-07-08 06:52:54,0.03,0.73,0.00,23.93,28.60,31.32,14.34,44.20,1012.23,2032.98,3262.39,2920.05,3301.11,599.78,591.44,50.52,0000 0000 0000 0000 000000
2016-07-08 06:57:56,-0.00,0.73,0.00,23.85,28.60,31.37,14.33,44.19,1012.23,2032.98,3262.01,2920.00,3301.00,599.85,591.61,50.57,0000 0000 0000 0000 000000
2016-07-08 07:02:57,0.03,0.73,0.00,23.90,28.60,31.34,14.47,44.13,1012.22,2032.97,3261.91,2919.68,3300.44,600.25,591.86,50.62,0000 0000 0000 0000 000000
2016-07-08 07:07:58,0.03,0.73,0.00,23.91,28.62,31.34,14.35,44.12,1012.22,2032.98,3261.03,2918.90,3299.71,599.93,591.51,50.67,0000 0000 0000 0000 000000
2016-07-08 07:13:00,0.06,0.73,0.00,23.96,28.62,31.34,14.35,44.27,1012.22,2032.95,3260.00,2917.95,3298.46,600.11,591.66,50.72,0000 0000 0000 0000 000000
2016-07-08 07:18:01,0.05,0.74,0.00,23.97,28.62,31.33,14.34,44.17,1012.22,2032.96,3259.07,2917.06,3297.43,599.51,591.04,50.77,0000 0000 0000 0000 000000
2016-07-08 07:23:03,0.05,0.74,0.00,23.96,28.62,31.32,14.33,44.11,1012.20,2032.97,3258.12,2916.23,3296.48,599.96,591.37,50.82,0000 0000 0000 0000 000000
2016-07-08 07:28:04,0.02,0.74,0.00,23.92,28.62,31.36,14.40,44.38,1011.93,2032.92,3257.61,2915.73,3295.82,599.91,591.25,50.87,0000 0000 0000 0000 000000
2016-07-08 07:33:05,0.02,0.74,0.00,23.96,28.62,31.34,14.35,44.26,1011.81,2032.84,3257.01,2915.04,3295.06,599.98,591.24,50.92,0000 0000 0000 0000 000000
2016-07-08 07:38:07,-0.00,0.74,0.00,24.00,28.62,31.33,14.38,44.01,1011.78,2032.56,3256.61,2914.77,3294.46,599.97,591.17,50.97,0000 0000 0000 0000 000000
2016-07-08 07:43:08,0.01,0.74,0.00,24.00,28.62,31.35,14.39,44.05,1011.74,2032.34,3256.01,2914.04,3293.98,600.08,591.29,51.02,0000 0000 0000 0000 000000
2016-07-08 07:48:09,0.03,0.74,0.00,23.97,28.62,31.35,14.38,44.13,1011.73,2032.45,3255.85,2913.98,3293.44,599.82,590.98,51.07,0000 0000 0000 0000 000000
2016-07-08 07:53:10,0.02,0.75,0.00,24.02,28.62,31.31,14.39,44.18,1011.74,2032.38,3255.13,2913.46,3293.00,600.14,591.30,51.12,0000 0000 0000 0000 000000
2016-07-08 07:58:12,0.06,0.75,0.00,24.00,28.62,31.32,14.39,44.17,1011.74,2032.44,3254.49,2912.83,3292.22,600.20,591.25,51.17,0000 0000 0000 0000 000000
2016-07-08 08:03:13,0.04,0.75,0.00,24.02,28.62,31.31,14.39,44.26,1011.73,2032.47,3253.75,2912.03,3291.15,600.25,591.27,51.22,0000 0000 0000 0000 000000
2016-07-08 08:08:14,0.04,0.75,0.00,24.02,28.62,31.32,14.38,44.17,1011.73,2032.45,3253.04,2911.61,3290.62,600.15,591.36,51.28,0000 0000 0000 0000 000000
2016-07-08 08:13:15,0.03,0.75,0.00,24.01,28.62,31.33,14.37,44.19,1011.71,2032.53,3252.34,2910.96,3289.92,600.05,591.14,51.33,0000 0000 0000 0000 000000
2016-07-08 08:18:16,0.06,0.76,0.00,24.02,28.60,31.32,14.47,44.15,1011.72,2032.54,3251.55,2910.09,3288.98,600.52,591.64,51.38,0000 0000 0000 0000 000000
2016-07-08 08:23:18,0.05,0.76,0.00,24.02,28.60,31.31,14.33,44.10,1011.72,2032.58,3250.64,2909.24,3287.97,599.70,590.84,51.43,0000 0000 0000 0000 000000
2016-07-08 08:28:19,0.09,0.76,0.00,24.01,28.60,31.31,14.34,44.02,1011.72,2032.57,3248.95,2907.91,3286.33,599.80,590.91,51.48,0000 0000 0000 0000 000000
2016-07-08 08:33:20,0.22,0.78,0.00,24.06,28.60,31.29,14.30,44.00,1011.72,2032.68,3245.41,2905.29,3283.16,599.75,590.80,51.53,0000 0000 0000 0000 000000
2016-07-08 08:38:21,0.12,0.78,0.00,24.04,28.59,31.30,14.32,44.07,1011.62,2032.84,3243.02,2903.40,3280.85,599.89,590.85,51.58,0000 0000 0000 0000 000000
2016-07-08 08:43:22,0.10,0.79,0.00,24.03,28.57,31.30,14.38,44.06,1011.52,2032.88,3241.24,2901.82,3278.98,600.20,591.18,51.63,0000 0000 0000 0000 000000
2016-07-08 08:48:24,0.09,0.79,0.00,24.03,28.57,31.29,14.35,44.07,1011.32,2032.93,3239.66,2900.44,3277.23,600.28,591.30,51.68,0000 0000 0000 0000 000000
2016-07-08 08:53:25,0.09,0.80,0.00,24.05,28.57,31.28,14.35,44.04,1011.29,2032.93,3238.05,2898.90,3275.46,600.15,590.87,51.73,0000 0000 0000 0000 000000
2016-07-08 08:58:27,0.09,0.80,0.00,24.04,28.55,31.29,14.33,43.93,1011.27,2032.92,3236.54,2897.47,3273.63,600.13,590.95,51.78,0000 0000 0000 0000 000000
2016-07-08 09:03:28,0.07,0.81,0.00,24.05,28.55,31.28,14.38,43.98,1011.26,2032.94,3235.04,2896.13,3271.99,600.01,590.67,51.83,0000 0000 0000 0000 000000
2016-07-08 09:08:29,0.07,0.81,0.00,24.05,28.55,31.27,14.33,44.12,1011.27,2032.91,3233.92,2895.02,3270.62,599.96,590.80,51.88,0000 0000 0000 0000 000000
2016-07-08 09:13:31,0.05,0.81,0.00,24.06,28.55,31.27,14.40,44.37,1011.26,2032.89,3232.98,2894.07,3269.48,600.01,590.85,51.93,0000 0000 0000 0000 000000
2016-07-08 09:18:32,0.06,0.82,0.00,24.04,28.54,31.27,14.31,44.29,1011.27,2032.93,3232.10,2893.34,3268.65,599.91,590.49,51.98,0000 0000 0000 0000 000000
2016-07-08 09:23:34,0.02,0.82,0.00,24.05,28.52,31.26,14.34,44.26,1011.26,2032.93,3231.44,2892.92,3267.98,599.87,590.71,52.03,0000 0000 0000 0000 000000
2016-07-08 09:28:34,0.05,0.82,0.00,24.05,28.52,31.27,14.36,44.33,1011.25,2032.96,3230.71,2892.13,3267.13,600.14,590.68,52.08,0000 0000 0000 0000 000000
2016-07-08 09:33:36,0.10,0.82,0.00,24.03,28.52,31.26,14.31,44.46,1011.26,2032.98,3229.18,2891.20,3265.88,600.25,591.08,52.13,0000 0000 0000 0000 000000
2016-07-08 09:38:37,0.09,0.83,0.00,24.02,28.52,31.25,14.33,44.18,1011.48,2032.99,3227.02,2889.33,3264.01,599.77,590.80,52.19,0000 0000 0000 0000 000000
2016-07-08 09:43:38,0.03,0.83,0.00,24.01,28.50,31.26,14.32,44.14,1011.51,2032.99,3226.12,2888.94,3263.12,600.13,591.12,52.24,0000 0000 0000 0000 000000
2016-07-08 09:48:40,0.03,0.83,0.00,24.05,28.50,31.25,14.34,43.96,1011.33,2032.99,3225.75,2888.19,3262.91,600.04,590.88,52.29,0000 0000 0000 0000 000000
2016-07-08 09:53:41,0.04,0.84,0.00,24.05,28.50,31.23,14.37,43.94,1011.31,2032.99,3224.90,2887.77,3261.97,600.05,590.92,52.34,0000 0000 0000 0000 000000
2016-07-08 09:58:42,0.19,0.84,0.00,24.03,28.50,31.23,14.36,44.08,1011.60,2032.99,3221.66,2885.45,3259.35,600.06,591.12,52.39,0000 0000 0000 0000 000000
2016-07-08 10:03:43,0.18,0.86,0.00,24.01,28.48,31.23,14.37,43.95,1011.71,2032.99,3217.46,2882.37,3255.94,600.25,591.35,52.44,0000 0000 0000 0000 000000
2016-07-08 10:08:45,0.02,0.86,0.00,24.00,28.47,31.24,14.34,44.03,1011.65,2032.98,3216.63,2881.88,3255.03,599.88,590.98,52.49,0000 0000 0000 0000 000000
2016-07-08 10:13:46,0.02,0.86,0.00,24.02,28.47,31.23,14.42,44.06,1011.51,2032.98,3216.15,2881.30,3255.00,599.96,590.97,52.54,0000 0000 0000 0000 000000
2016-07-08 10:18:47,0.01,0.86,0.00,24.00,28.47,31.22,14.34,44.09,1011.61,2032.98,3216.01,2881.02,3254.71,600.08,591.29,52.59,0000 0000 0000 0000 000000
2016-07-08 10:23:49,0.01,0.86,0.00,23.99,28.47,31.24,14.33,43.96,1011.35,2032.99,3215.97,2881.00,3254.10,600.04,591.01,52.64,0000 0000 0000 0000 000000
2016-07-08 10:28:50,0.11,0.86,0.00,24.00,28.45,31.22,14.37,43.86,1011.47,2032.99,3214.46,2880.08,3253.04,599.97,591.00,52.69,0000 0000 0000 0000 000000
2016-07-08 10:33:51,0.47,0.88,0.00,24.00,28.45,31.21,14.32,43.87,1011.61,2032.98,3206.67,2874.78,3246.82,599.99,591.12,52.74,0000 0000 0000 0000 000000
2016-07-08 10:38:52,0.39,0.90,0.00,23.97,28.45,31.23,14.37,43.92,1011.69,2032.99,3198.16,2869.00,3240.19,600.06,591.27,52.79,0000 0000 0000 0000 000000
2016-07-08 10:43:54,0.46,0.92,0.00,23.97,28.45,31.22,14.32,43.84,1011.71,2032.99,3189.26,2862.86,3233.06,600.01,591.24,52.84,0000 0000 0000 0000 000000
2016-07-08 10:48:55,0.34,0.95,0.00,23.95,28.45,31.21,14.38,44.00,1011.68,2032.99,3180.95,2857.14,3226.64,600.30,591.55,52.89,0000 0000 0000 0000 000000
2016-07-08 10:53:57,0.02,0.95,0.00,23.97,28.45,31.20,14.36,43.99,1011.45,2032.99,3180.00,2856.03,3225.43,600.18,591.25,52.94,0000 0000 0000 0000 000000
2016-07-08 10:58:58,0.00,0.95,0.00,23.97,28.45,31.21,14.37,43.83,1011.31,2032.99,3179.98,2856.00,3225.04,599.88,590.88,52.99,0000 0000 0000 0000 000000
2016-07-08 11:03:59,0.04,0.95,0.00,24.00,28.44,31.19,14.34,44.03,1011.26,2032.99,3179.48,2855.53,3224.81,600.03,590.81,53.04,0000 0000 0000 0000 000000
2016-07-08 11:09:00,0.02,0.96,0.00,23.99,28.44,31.19,14.35,44.13,1011.26,2032.99,3179.01,2855.01,3224.06,600.00,590.92,53.10,0000 0000 0000 0000 000000
2016-07-08 11:14:02,0.05,0.96,0.00,23.98,28.44,31.20,14.37,44.16,1011.25,2032.99,3178.40,2854.48,3223.51,600.06,590.99,53.15,0000 0000 0000 0000 000000
2016-07-08 11:19:03,0.01,0.96,0.00,23.99,28.44,31.20,14.38,44.22,1011.25,2032.99,3178.00,2854.01,3223.01,600.03,590.99,53.20,0000 0000 0000 0000 000000
2016-07-08 11:24:04,0.05,0.96,0.00,23.99,28.44,31.20,14.32,44.08,1011.25,2032.99,3177.43,2853.58,3222.31,600.32,591.15,53.25,0000 0000 0000 0000 000000
2016-07-08 11:29:05,0.02,0.96,0.00,23.97,28.44,31.19,14.35,44.10,1011.25,2032.99,3176.87,2852.97,3221.64,599.89,590.85,53.30,0000 0000 0000 0000 000000
2016-07-08 11:34:06,0.04,0.97,0.00,23.95,28.43,31.20,14.36,44.18,1011.19,2032.99,3176.07,2852.17,3221.00,600.24,591.18,53.35,0000 0000 0000 0000 000000
2016-07-08 11:39:08,0.00,0.97,0.00,23.98,28.43,31.19,14.36,44.27,1010.97,2032.99,3176.00,2852.00,3220.79,599.93,590.69,53.40,0000 0000 0000 0000 000000
2016-07-08 11:44:09,0.00,0.97,0.00,23.97,28.42,31.20,14.38,44.19,1011.03,2032.99,3176.00,2852.00,3220.33,599.89,590.83,53.45,0000 0000 0000 0000 000000
2016-07-08 11:49:10,0.00,0.97,0.00,23.90,28.42,31.19,14.34,44.13,1010.84,2032.99,3175.98,2851.98,3220.03,599.99,590.87,53.50,0000 0000 0000 0000 000000
2016-07-08 11:54:11,0.00,0.97,0.00,23.89,28.42,31.19,14.27,44.10,1010.80,2032.99,3175.97,2851.96,3220.02,599.81,590.67,53.55,0000 0000 0000 0000 000000
2016-07-08 11:59:12,0.00,0.97,0.00,23.91,28.42,31.20,14.37,44.13,1010.83,2032.98,3175.91,2851.91,3220.00,599.81,590.67,53.60,0000 0000 0000 0000 000000
2016-07-08 12:04:13,0.02,0.97,0.00,23.91,28.42,31.20,14.34,44.18,1010.84,2032.98,3175.41,2851.55,3220.00,599.83,590.66,53.65,0000 0000 0000 0000 000000
2016-07-08 12:09:14,0.01,0.97,0.00,23.87,28.42,31.23,14.42,44.08,1010.79,2032.99,3175.12,2851.32,3219.99,599.86,590.71,53.70,0000 0000 0000 0000 000000
2016-07-08 12:14:16,0.00,0.97,0.00,23.90,28.42,31.21,14.29,44.16,1010.78,2032.99,3175.01,2851.03,3219.94,600.08,590.91,53.75,0000 0000 0000 0000 000000
2016-07-08 12:19:17,0.00,0.97,0.00,23.90,28.42,31.20,14.37,44.17,1010.77,2032.99,3175.00,2851.00,3219.79,599.94,590.76,53.80,0000 0000 0000 0000 000000
2016-07-08 12:24:18,0.01,0.97,0.00,23.90,28.42,31.20,14.37,44.13,1010.77,2032.99,3174.99,2851.00,3219.34,600.30,591.02,53.85,0000 0000 0000 0000 000000
2016-07-08 12:29:19,-0.00,0.97,0.00,23.89,28.41,31.21,14.38,44.00,1010.77,2032.99,3174.98,2851.00,3219.16,599.92,590.72,53.90,0000 0000 0000 0000 000000
2016-07-08 12:34:21,0.00,0.97,0.00,23.89,28.40,31.22,14.37,44.02,1010.77,2032.99,3174.84,2850.99,3219.02,599.95,590.80,53.95,0000 0000 0000 0000 000000
2016-07-08 12:39:22,0.01,0.97,0.00,23.96,28.40,31.21,14.28,43.92,1010.78,2032.99,3174.24,2850.98,3219.00,599.89,590.51,54.01,0000 0000 0000 0000 000000
2016-07-08 12:44:24,0.01,0.97,0.00,23.97,28.40,31.20,14.35,44.05,1010.77,2032.99,3174.02,2850.78,3218.98,600.07,590.76,54.06,0000 0000 0000 0000 000000
2016-07-08 12:49:25,0.02,0.97,0.00,23.95,28.41,31.22,14.34,44.22,1010.77,2032.99,3174.00,2850.22,3218.75,600.25,590.95,54.11,0000 0000 0000 0000 000000
2016-07-08 12:54:26,0.01,0.97,0.00,23.96,28.41,31.22,14.44,44.23,1010.78,2032.99,3173.98,2850.01,3218.11,600.28,591.02,54.16,0000 0000 0000 0000 000000